• In Moldova, Republic
  • List of Countries
  • For 7 days
  • Water Temperature
  • Satellite Maps
  • Weather Map
  • Weather Widgets
  • user-avatar
    Login

    Hourly Weather Prutz

    Today, 24 March, Friday

    Time Temperature Precipitation Wind Pressure Humidity
    00:00 +1°C° 0 mm 2 mps 632 mmHg 95%
    01:00 +1°C° 0 mm 2 mps 633 mmHg 95%
    02:00 +1°C° 0 mm 2 mps 633 mmHg 95%
    03:00 +1°C° 0 mm 2 mps 633 mmHg 95%
    04:00 -1°C° 0 mm 2 mps 633 mmHg 94%
    05:00 +1°C° 0 mm 2 mps 634 mmHg 94%
    06:00 +1°C° 0 mm 2 mps 634 mmHg 93%
    07:00 +1°C° 0 mm 2 mps 635 mmHg 93%
    08:00 +3°C° 0 mm 2 mps 635 mmHg 92%
    09:00 +5°C° 0 mm 1 mps 636 mmHg 91%
    10:00 +7°C° 0 mm 1 mps 636 mmHg 90%
    11:00 +8°C° 0 mm 1 mps 636 mmHg 88%
    12:00 +8°C° 0 mm 1 mps 637 mmHg 87%
    13:00 +9°C° 0 mm 1 mps 637 mmHg 86%
    14:00 +9°C° 0 mm 1 mps 637 mmHg 87%
    15:00 +9°C° 0 mm 1 mps 637 mmHg 88%
    16:00 +9°C° 0 mm 1 mps 637 mmHg 89%
    17:00 +7°C° 0 mm 1 mps 636 mmHg 91%
    18:00 +6°C° 0 mm 1 mps 636 mmHg 94%
    19:00 +4°C° 0 mm 1 mps 635 mmHg 97%
    20:00 +4°C° 0 mm 1 mps 636 mmHg 96%
    21:00 +4°C° 0 mm 1 mps 636 mmHg 96%
    22:00 +3°C° 0 mm 1 mps 636 mmHg 95%
    23:00 +3°C° 0 mm 1 mps 636 mmHg 95%

    Tomorrow, 25 March, Saturday

    Time Temperature Precipitation Wind Pressure Humidity
    00:00 +2°C° 0 mm 1 mps 636 mmHg 95%
    01:00 +2°C° 0 mm 1 mps 636 mmHg 94%
    02:00 +2°C° 0 mm 1 mps 635 mmHg 94%
    03:00 +2°C° 0 mm 1 mps 635 mmHg 94%
    04:00 -1°C° 0 mm 2 mps 635 mmHg 94%
    05:00 +1°C° 0 mm 2 mps 635 mmHg 94%
    06:00 +1°C° 0 mm 2 mps 635 mmHg 93%
    07:00 +1°C° 0 mm 2 mps 635 mmHg 93%
    08:00 +3°C° 0 mm 2 mps 636 mmHg 90%
    09:00 +5°C° 0 mm 2 mps 636 mmHg 87%
    10:00 +7°C° 0 mm 2 mps 637 mmHg 84%
    11:00 +8°C° 0 mm 2 mps 637 mmHg 82%
    12:00 +9°C° 0 mm 2 mps 636 mmHg 80%
    13:00 +9°C° 0 mm 2 mps 636 mmHg 78%
    14:00 +9°C° 0 mm 2 mps 636 mmHg 79%
    15:00 +9°C° 0 mm 2 mps 635 mmHg 80%
    16:00 +8°C° 0 mm 2 mps 635 mmHg 81%
    17:00 +6°C° 0 mm 2 mps 634 mmHg 86%
    18:00 +4°C° 0 mm 2 mps 633 mmHg 90%
    19:00 +2°C° 0 mm 2 mps 632 mmHg 95%
    20:00 +2°C° 0 mm 2 mps 632 mmHg 94%
    21:00 +2°C° 0 mm 2 mps 632 mmHg 94%
    22:00 +1°C° 0 mm 2 mps 632 mmHg 94%
    23:00 +1°C° 0 mm 2 mps 632 mmHg 94%

    Day after tomorrow, 26 March, Sunday

    Time Temperature Precipitation Wind Pressure Humidity
    00:00 +1°C° 0 mm 2 mps 632 mmHg 94%
    01:00 -1°C° 0 mm 2 mps 632 mmHg 93%
    02:00 +1°C° 0 mm 1 mps 632 mmHg 93%
    03:00 +1°C° 0 mm 1 mps 631 mmHg 93%
    04:00 0°C° 0 mm 1 mps 631 mmHg 93%
    05:00 0°C° 0 mm 1 mps 631 mmHg 92%
    06:00 0°C° 0 mm 1 mps 631 mmHg 91%
    07:00 0°C° 0 mm 1 mps 631 mmHg 90%
    08:00 +2°C° 0 mm 1 mps 632 mmHg 87%
    09:00 +4°C° 0 mm 1 mps 633 mmHg 85%
    10:00 +6°C° 0 mm 1 mps 634 mmHg 82%
    11:00 +7°C° 0.1 mm 1 mps 634 mmHg 82%
    12:00 +6°C° 0.1 mm 2 mps 634 mmHg 82%
    13:00 +6°C° 0.1 mm 2 mps 634 mmHg 83%
    14:00 +6°C° 0.1 mm 2 mps 633 mmHg 84%
    15:00 +5°C° 0.1 mm 2 mps 633 mmHg 86%
    16:00 +5°C° 0.1 mm 2 mps 633 mmHg 87%
    17:00 +4°C° 0 mm 2 mps 633 mmHg 90%
    18:00 +4°C° 0 mm 1 mps 633 mmHg 93%
    19:00 +3°C° 0 mm 1 mps 633 mmHg 96%
    20:00 +2°C° 0 mm 1 mps 633 mmHg 96%
    21:00 +1°C° 0 mm 1 mps 633 mmHg 96%
    22:00 0°C° 0 mm 1 mps 633 mmHg 96%
    23:00 0°C° 0 mm 1 mps 633 mmHg 96%

    27 March, Monday

    Time Temperature Precipitation Wind Pressure Humidity
    00:00 -1°C° 0 mm 1 mps 633 mmHg 96%
    01:00 -1°C° 0 mm 1 mps 633 mmHg 96%
    02:00 -1°C° 0 mm 1 mps 633 mmHg 95%
    03:00 -1°C° 0 mm 1 mps 633 mmHg 93%
    04:00 -2°C° 0 mm 2 mps 633 mmHg 91%
    05:00 -2°C° 0 mm 2 mps 634 mmHg 91%
    06:00 -1°C° 0 mm 2 mps 634 mmHg 90%
    07:00 -1°C° 0 mm 2 mps 634 mmHg 89%
    08:00 +4°C° 0 mm 1 mps 635 mmHg 83%
    09:00 +6°C° 0 mm 1 mps 636 mmHg 76%
    10:00 +8°C° 0 mm 1 mps 636 mmHg 70%
    11:00 +9°C° 0 mm 1 mps 637 mmHg 68%
    12:00 +10°C° 0 mm 1 mps 637 mmHg 66%
    13:00 +11°C° 0 mm 1 mps 637 mmHg 64%
    14:00 +10°C° 0 mm 1 mps 637 mmHg 67%
    15:00 +10°C° 0 mm 1 mps 636 mmHg 70%
    16:00 +10°C° 0 mm 1 mps 636 mmHg 74%
    17:00 +7°C° 0 mm 1 mps 636 mmHg 81%
    18:00 +4°C° 0 mm 1 mps 635 mmHg 89%
    19:00 +1°C° 0 mm 0 mps 634 mmHg 97%
    20:00 0°C° 0 mm 0 mps 634 mmHg 97%
    21:00 0°C° 0 mm 0 mps 635 mmHg 97%
    22:00 0°C° 0 mm 0 mps 635 mmHg 97%
    23:00 +1°C° 0 mm 1 mps 635 mmHg 97%

    28 March, Tuesday

    Time Temperature Precipitation Wind Pressure Humidity
    00:00 +1°C° 0 mm 1 mps 635 mmHg 97%
    01:00 +1°C° 0 mm 1 mps 635 mmHg 96%
    02:00 +1°C° 0 mm 1 mps 635 mmHg 96%
    03:00 +1°C° 0 mm 1 mps 635 mmHg 96%
    04:00 +1°C° 0 mm 1 mps 636 mmHg 96%
    05:00 +2°C° 0 mm 1 mps 636 mmHg 94%
    06:00 +2°C° 0 mm 1 mps 636 mmHg 93%
    07:00 +3°C° 0 mm 1 mps 637 mmHg 91%
    08:00 +5°C° 0 mm 1 mps 637 mmHg 83%
    09:00 +7°C° 0 mm 1 mps 638 mmHg 75%
    10:00 +9°C° 0 mm 0 mps 639 mmHg 67%
    11:00 +10°C° 0 mm 1 mps 639 mmHg 65%
    12:00 +11°C° 0 mm 1 mps 639 mmHg 63%
    13:00 +12°C° 0 mm 1 mps 639 mmHg 62%
    14:00 +11°C° 0 mm 1 mps 639 mmHg 65%
    15:00 +11°C° 0 mm 1 mps 639 mmHg 68%
    16:00 +10°C° 0 mm 1 mps 639 mmHg 72%
    17:00 +8°C° 0 mm 1 mps 638 mmHg 79%
    18:00 +5°C° 0 mm 1 mps 637 mmHg 87%
    19:00 +3°C° 0 mm 1 mps 636 mmHg 95%
    20:00 +1°C° 0 mm 0 mps 636 mmHg 95%
    21:00 +1°C° 0 mm 0 mps 637 mmHg 96%
    22:00 0°C° 0 mm 0 mps 637 mmHg 97%
    23:00 0°C° 0 mm 0 mps 637 mmHg 97%

    29 March, Wednesday

    Time Temperature Precipitation Wind Pressure Humidity
    00:00 0°C° 0 mm 0 mps 637 mmHg 97%
    01:00 0°C° 0 mm 0 mps 637 mmHg 97%
    02:00 0°C° 0 mm 0 mps 637 mmHg 97%
    03:00 0°C° 0 mm 0 mps 637 mmHg 97%
    04:00 +2°C° 0 mm 1 mps 637 mmHg 96%
    05:00 +2°C° 0 mm 1 mps 638 mmHg 96%
    06:00 +3°C° 0 mm 1 mps 639 mmHg 95%
    07:00 +4°C° 0 mm 1 mps 639 mmHg 94%
    08:00 +6°C° 0 mm 1 mps 640 mmHg 86%
    09:00 +8°C° 0 mm 1 mps 640 mmHg 77%
    10:00 +10°C° 0 mm 1 mps 641 mmHg 69%
    11:00 +11°C° 0 mm 1 mps 641 mmHg 66%
    12:00 +11°C° 0 mm 1 mps 641 mmHg 63%
    13:00 +12°C° 0 mm 1 mps 641 mmHg 61%
    14:00 +12°C° 0.1 mm 1 mps 641 mmHg 64%
    15:00 +11°C° 0.1 mm 1 mps 640 mmHg 67%
    16:00 +11°C° 0.1 mm 1 mps 640 mmHg 70%
    17:00 +8°C° 0.1 mm 1 mps 639 mmHg 78%
    18:00 +6°C° 0.1 mm 1 mps 638 mmHg 86%
    19:00 +3°C° 0.1 mm 1 mps 637 mmHg 93%
    20:00 +1°C° 0 mm 0 mps 637 mmHg 94%
    21:00 +1°C° 0 mm 0 mps 637 mmHg 95%
    22:00 0°C° 0 mm 0 mps 637 mmHg 96%
    23:00 0°C° 0 mm 0 mps 637 mmHg 95%
    Show more